Portland Hillsboro, OR

3:15 AM PDT on July 23, 2017 (GMT -0700)
Portland-Hillsboro

Weather History for KHIO - June, 2014

Change the Weather History Date:

Wednesday, June 4, 2014

  Actual Average Record
Temperature  
Mean Temperature 58 °F 59 °F  
Max Temperature 73 °F 71 °F 98 °F (2016)
Min Temperature 43 °F 47 °F 36 °F (1939)
Degree Days  
Heating Degree Days 7 7  
Month to date heating degree days 23 28  
Since 1 July heating degree days 4901 4878  
Cooling Degree Days 0 0  
Month to date cooling degree days 0 0  
Year to date cooling degree days 7 6  
Growing Degree Days 8 (Base 50)    
Moisture  
Dew Point 45 °F    
Average Humidity 60    
Maximum Humidity 92    
Minimum Humidity 27    
Precipitation  
Precipitation 0.00 in 0.05 in 0.80 in (1964)
Month to date precipitation 0.00 0.23  
Year to date precipitation 18.66 19.72  
Snow  
Snow 0.00 in - - ()
Month to date snowfall 0.0  
Since 1 June snowfall 0.0  
Since 1 July snowfall 0.0  
Snow Depth 0.00 in    
Sea Level Pressure  
Sea Level Pressure 30.13 in    
Wind  
Wind Speed 5 mph (NNW)    
Max Wind Speed 17 mph    
Max Gust Speed 21 mph    
Visibility 10 miles    
Events      
T = Trace of Precipitation, MM = Missing Value Source: NWS Daily Summary

Daily Weather History Graph

Daily Weather History Graph

Search for Another Location

Airport or City:

Trip Planner

Search our weather history database for the weather conditions in past years. The results will help you decide how hot, cold, wet, or windy it might be!

Date:

Astronomy

Jun. 04, 2014 Rise Set
Actual Time 5:24 AM PDT 8:55 PM PDT
Civil Twilight 4:47 AM PDT 9:33 PM PDT
Nautical Twilight 3:58 AM PDT 10:22 PM PDT
Astronomical Twilight 2:54 AM PDT 11:27 PM PDT
Moon 12:03 PM PDT (6/4) 12:44 AM PDT (6/4)
Length of Visible Light 16h 45m
Length of Day
15h 31m
Waxing Crescent, 40% of the Moon is Illuminated
Jun 4
Waxing Crescent
Jun 5
First Quarter
Jun 12
Full
Jun 19
Last Quarter
Jun 27
New

Hourly Weather History & Observations

Time (PDT) Temp. Windchill Dew Point Humidity Pressure Visibility Wind Dir Wind Speed Gust Speed Precip Events Conditions
12:53 AM 50.0 °F - 45.0 °F 83% 30.11 in 10.0 mi Calm Calm - N/A   Clear
1:53 AM 48.0 °F - 44.1 °F 86% 30.11 in 10.0 mi Calm Calm - N/A   Clear
2:53 AM 45.0 °F 42.6 °F 43.0 °F 93% 30.12 in 10.0 mi NW 4.6 mph - N/A   Clear
3:53 AM 44.1 °F 42.5 °F 42.1 °F 93% 30.13 in 10.0 mi NW 3.5 mph - N/A   Partly Cloudy
4:53 AM 44.1 °F - 41.0 °F 89% 30.13 in 10.0 mi Calm Calm - N/A   Overcast
5:48 AM 44.6 °F - 42.8 °F 93% 30.13 in 8.0 mi Calm Calm - N/A   Overcast
5:53 AM 44.1 °F - 42.1 °F 93% 30.13 in 7.0 mi Calm Calm - N/A   Overcast
6:23 AM 45.0 °F - 43.0 °F 93% 30.14 in 9.0 mi Calm Calm - N/A   Mostly Cloudy
6:43 AM 46.9 °F - 44.1 °F 90% 30.14 in 10.0 mi Calm Calm - N/A   Overcast
6:53 AM 48.0 °F - 45.0 °F 89% 30.14 in 10.0 mi Calm Calm - N/A   Overcast
8:53 AM 54.0 °F - 46.9 °F 77% 30.16 in 10.0 mi Calm Calm - N/A   Overcast
9:53 AM 57.0 °F - 46.0 °F 67% 30.16 in 10.0 mi Calm Calm - N/A   Mostly Cloudy
10:53 AM 59.0 °F - 46.9 °F 64% 30.15 in 10.0 mi East 5.8 mph - N/A   Mostly Cloudy
11:53 AM 63.0 °F - 48.0 °F 58% 30.15 in 10.0 mi Variable 4.6 mph - N/A   Mostly Cloudy
12:10 PM 62.1 °F - 48.0 °F 60% 30.15 in 10.0 mi Variable 3.5 mph - N/A   Mostly Cloudy
12:53 PM 64.0 °F - 48.9 °F 58% 30.14 in 10.0 mi Variable 4.6 mph - N/A   Scattered Clouds
1:53 PM 66.9 °F - 51.1 °F 57% 30.13 in 10.0 mi Variable 5.8 mph - N/A   Clear
2:53 PM 69.1 °F - 51.1 °F 53% 30.11 in 10.0 mi ENE 4.6 mph - N/A   Clear
3:53 PM 71.1 °F - 51.1 °F 49% 30.09 in 10.0 mi Variable 4.6 mph - N/A   Clear
4:53 PM 73.0 °F - 51.1 °F 46% 30.08 in 10.0 mi ENE 4.6 mph - N/A   Clear
5:53 PM 73.0 °F - 37.9 °F 28% 30.08 in 10.0 mi NNW 11.5 mph - N/A   Clear
6:53 PM 69.1 °F - 41.0 °F 36% 30.08 in 10.0 mi NW 16.1 mph - N/A   Clear
8:53 PM 60.1 °F - 44.1 °F 55% 30.11 in 10.0 mi NW 12.7 mph - N/A   Clear
9:53 PM 55.0 °F - 44.1 °F 67% 30.13 in 10.0 mi NW 9.2 mph - N/A   Clear
10:53 PM 54.0 °F - 43.0 °F 66% 30.13 in 10.0 mi WNW 10.4 mph - N/A   Clear
11:53 PM 50.0 °F - 42.1 °F 74% 30.13 in 10.0 mi WNW 4.6 mph - N/A   Clear